![](https://secure.gravatar.com/avatar/900f734c10632692418d1b47311b6af5.jpg?s=120&d=mm&r=g)
SB KEPS @ AMSAT $ORB11013.N 2Line Orbital Elements 11013.AMSAT
HR AMSAT ORBITAL ELEMENTS FOR AMATEUR SATELLITES IN NASA FORMAT FROM WA5QGD FORT WORTH,TX January 13, 2011 Send Subscribe/unsubscribe to KEPS at http://www.amsat.org/mailman/listinfo/keps BID: ORB11013.N
DECODE 2-LINE ELSETS WITH THE FOLLOWING KEY: 1 AAAAAU 00 0 0 BBBBB.BBBBBBBB .CCCCCCCC 00000-0 00000-0 0 DDDZ 2 AAAAA EEE.EEEE FFF.FFFF GGGGGGG HHH.HHHH III.IIII JJ.JJJJJJJJKKKKKZ KEY: A-CATALOGNUM B-EPOCHTIME C-DECAY D-ELSETNUM E-INCLINATION F-RAAN G-ECCENTRICITY H-ARGPERIGEE I-MNANOM J-MNMOTION K-ORBITNUM Z-CHECKSUM
TO ALL RADIO AMATEURS BT
AO-07 1 07530U 74089B 11013.49194488 -.00000027 00000-0 10000-3 0 9776 2 07530 101.3954 026.1340 0011729 222.6671 137.3490 12.53580876654807 FO-29 1 24278U 96046B 11012.90483571 .00000113 00000-0 15358-3 0 04940 2 24278 098.5221 178.1395 0350070 299.9552 056.7260 13.52957028711469 SO-33 1 25509U 98061B 11012.44820556 .00000325 00000-0 52254-4 0 08816 2 25509 031.4354 045.1104 0354064 319.6497 037.8350 14.28357873637997 RS-22 1 27939U 03042A 11013.57371899 .00000152 00000-0 37854-4 0 8969 2 27939 097.8637 234.7823 0014507 112.0306 248.2450 14.63499829389720 VO-52 1 28650U 05017B 11012.26134370 .00000159 00000-0 26476-4 0 06930 2 28650 097.6653 062.2124 0026152 314.4983 045.4083 14.81889841307651 SO-67 1 35870U 09049F 11013.76099569 .00000807 00000-0 39083-4 0 4674 2 35870 097.3041 062.0029 0004659 081.3859 028.4838 15.21288965 73466 HO-68 1 36122U 09072B 11013.63850660 -.00000045 00000-0 00000 0 0 206 2 36122 100.4412 076.6585 0007303 215.7643 144.2984 13.16283747 51905 UO-11 1 14781U 84021B 11012.76658471 -.00000214 00000-0 -21231-4 0 4420 2 14781 098.0273 069.7987 0008067 284.3286 075.7019 14.79877670442805 AO-16 1 20439U 90005D 11012.68508410 .00000039 00000-0 30159-4 0 916 2 20439 098.3642 327.6749 0010081 266.7423 093.2601 14.31891347 95365 LO-19 1 20442U 90005G 11013.48776701 -.00000070 00000-0 -10497-4 0 09 2 20442 098.3263 333.4060 0011004 255.0006 104.9973 14.32119039 95659 AO-27 1 22825U 93061C 11012.81466278 -.00000088 00000-0 -17756-4 0 07249 2 22825 098.5133 320.6236 0008935 017.7578 342.3918 14.29322447901998 IO-26 1 22826U 93061D 11012.91238998 .00000023 00000-0 25884-4 0 04624 2 22826 098.5087 321.2463 0009231 012.6893 347.4524 14.29581951902122 GO-32 1 25397U 98043D 11012.75058889 .00000104 00000-0 63920-4 0 03819 2 25397 098.3192 013.7004 0001814 041.1329 318.9978 14.23194427649853 NO-44 1 26931U 01043C 11012.52385109 .00000177 00000-0 10111-3 0 6536 2 26931 067.0529 024.6176 0006712 273.6535 086.3792 14.29630404484672 SO-50 1 27607U 02058C 11013.67676091 .00000016 00000-0 24415-4 0 3659 2 27607 064.5586 077.1302 0054912 358.4555 001.6374 14.71629985433355 CO-55 1 27844U 03031E 11013.59784542 .00000056 00000-0 46030-4 0 216 2 27844 098.7079 024.5399 0009186 287.1848 072.8322 14.20761095390967 CO-57 1 27848U 03031J 11011.54545778 .00000062 00000-0 49366-4 0 09681 2 27848 098.7132 021.6580 0009220 298.3809 061.6445 14.20547277390620 AO-51 1 28375U 04025K 11012.47472926 .00000029 00000-0 21216-4 0 08707 2 28375 098.0795 359.2630 0083225 181.8080 178.2823 14.40719186343641 CP3 1 31129U 07012N 11012.52345440 .00000136 00000-0 41981-4 0 07724 2 31129 097.9163 045.6238 0101511 304.8329 054.3365 14.52362665198249 CO-65 1 32785U 08021C 11013.72269770 -.00000091 00000-0 -47746-5 0 8873 2 32785 097.8703 080.4389 0014324 323.3287 036.6940 14.81805291146665 KKS-1 1 33493U 09002B 11013.76159188 .00000740 00000-0 10175-3 0 2153 2 33493 098.1052 140.3793 0019999 176.8709 183.2642 14.81282806106655 SOHLA-1 1 33496U 09002E 11013.49173891 .00000039 00000-0 14825-4 0 3062 2 33496 098.0697 125.0231 0005524 252.5707 107.4900 14.69548401105766 TISAT-1 1 36799U 10035E 11013.76252797 .00000446 00000-0 65656-4 0 4894 2 36799 098.1228 080.3757 0016583 058.4240 301.8575 14.80289632 27463 STUDSAT 1 36801U 10035G 11013.82233359 .00001152 00000-0 15941-3 0 1183 2 36801 098.1266 080.3013 0014833 046.2900 313.9535 14.79944404 27461 RAX 1 37223U 0 11012.40204391 .00000314 00000-0 52123-4 0 00520 2 37223 071.9722 022.5456 0022448 219.7794 140.1715 14.77216282007882 OOREOS 1 37224U 10062C 11003.47313986 .00000190 00000-0 34872-4 0 00475 2 37224 071.9731 042.3045 0021305 233.7010 126.2182 14.76873402006553 FASTSAT 1 37225U 10062D 10339.55430316 .00000041 00000-0 13962-4 0 00217 2 37225 071.9720 106.1057 0019965 280.4841 079.4053 14.76483442002287 FAST1-2 1 37227U 0 11011.27978720 .00000039 00000-0 13611-4 0 00514 2 37227 071.9718 025.1673 0018572 217.0654 142.9207 14.76383437007703 NOAA-10 1 16969U 86073A 11012.59942744 .00000001 00000-0 18169-4 0 03561 2 16969 098.6369 044.3744 0011912 323.4754 036.5598 14.27440607265455 NOAA-11 1 19531U 88089A 11012.76774404 -.00000146 00000-0 -52765-4 0 03600 2 19531 098.7591 103.1452 0010442 273.0974 086.9008 14.14900788150772 NOAA-12 1 21263U 91032A 11012.70619247 .00000029 00000-0 30971-4 0 08534 2 21263 098.7582 030.7667 0011615 280.3612 079.6255 14.25678245022259 MET-3/5 1 21655U 91056A 11013.76566993 .00000051 00000-0 10000-3 0 123 2 21655 082.5568 159.8668 0013527 178.4933 181.6264 13.17024292933397 MET-2/21 1 22782U 93055A 11012.78341468 -.00000032 00000-0 -42451-4 0 9895 2 22782 082.5466 086.1827 0022428 170.8274 189.3306 13.83653219877062 OKEAN-4 1 23317U 94066A 11012.77466892 .00000360 00000-0 41414-4 0 04470 2 23317 082.5407 158.2289 0020438 271.9020 087.9855 14.82923407877517 NOAA-14 1 23455U 94089A 11012.69503253 -.00000001 00000-0 22948-4 0 03419 2 23455 098.8632 096.8213 0009625 006.4188 353.7118 14.13804507827104 NOAA-15 1 25338U 98030A 11012.97825525 .00000089 00000-0 56837-4 0 06705 2 25338 098.6414 001.3732 0010493 179.4824 180.6353 14.24877783658627 RESURS 1 25394U 98043A 11012.56572064 -.00000010 00000-0 13345-4 0 07009 2 25394 098.2987 024.1676 0001617 004.5977 355.5222 14.24221300650151 FENGYUN1 1 25730U 99025A 11013.52997023 -.00000093 00000-0 -29147-4 0 2326 2 25730 098.8044 338.2369 0022608 026.1112 334.1233 14.08490347601294 OKEAN-0 1 25860U 99039A 11012.81668572 .00000090 00000-0 21176-4 0 02026 2 25860 097.8627 343.7401 0001753 093.6402 266.5003 14.73700756617774 NOAA-16 1 26536U 00055A 11013.31294184 -.00000130 00000-0 -45364-4 0 1488 2 26536 099.1572 040.5929 0011241 106.6821 253.5564 14.12592997531490 NOAA-17 1 27453U 02032A 11012.77805036 .00000137 00000-0 77379-4 0 01449 2 27453 098.4029 059.4625 0010810 242.9298 117.0771 14.24227228444530 NOAA-18 1 28654U 05018A 11012.78395885 .00000123 00000-0 92489-4 0 06299 2 28654 098.9778 323.7135 0014230 179.5663 180.5532 14.11425538291006 NOAA-19 1 33591U 09005A 11012.81784686 .00000388 00000-0 23935-3 0 08249 2 33591 098.8125 315.7115 0014889 057.6456 302.6156 14.11121384099470 HUBBLE 1 20580U 90037B 11011.15833349 .00000612 00000-0 33865-4 0 6999 2 20580 028.4718 322.0136 0003433 245.5637 114.4619 15.01138125936033 ISS 1 25544U 98067A 11013.87834491 .00100464 00000-0 74875-3 0 6367 2 25544 051.6444 231.9850 0005243 180.6343 008.4322 15.71951205696616 CO-58 1 28895U 05043F 11012.63529875 .00000338 00000-0 79666-4 0 07758 2 28895 097.9881 254.8322 0017817 352.4169 007.6808 14.59994104277546 FALCON 1 30776U 07006E 11012.94000082 .00000896 00000-0 66439-4 0 00002 2 30776 035.4322 210.4861 0001243 258.4188 101.6389 15.04061827211659 MAST 1 31126U 07012K 11013.51074655 -.00000004 00000-0 96844-5 0 589 2 31126 097.9122 049.3528 0093698 292.5694 066.5621 14.53663465198612 CAPE1 1 31130U 07012P 11012.52427126 .00000042 00000-0 20414-4 0 00804 2 31130 097.9147 045.4343 0101641 305.0715 054.0985 14.52278065198047 COMPASS 1 32787U 08021E 11012.33973801 .00000602 00000-0 82256-4 0 08812 2 32787 097.8680 078.9442 0015269 328.1661 031.8649 14.82108497146478 AAUSAT2 1 32788U 08021F 11012.65911588 .00000035 00000-0 10972-4 0 08706 2 32788 097.8688 079.4368 0014930 328.2611 031.7666 14.82266737146537 DO-64 1 32789U 08021G 11013.71911106 .00000451 00000-0 62679-4 0 8872 2 32789 097.8773 081.2237 0014772 322.0285 037.9870 14.82542557146691 CO-66 1 32791U 08021J 11012.19201465 -.00000002 00000-0 64545-5 0 08728 2 32791 097.8696 078.7807 0015668 327.3585 032.6651 14.81852837146400 RS-30 1 32953U 08025A 11013.60861912 .00000010 00000-0 00000 0 0 3844 2 32953 082.5011 258.8296 0019540 005.9994 354.1318 12.43010353119880 TACSAT-3 1 35001U 09028A 11012.48983316 .00007144 00000-0 15470-3 0 04862 2 35001 040.4550 034.6100 0021411 132.5067 227.7561 15.44402197092970 PHARMSAT 1 35002U 09028B 11012.45432056 .00006104 00000-0 13168-3 0 4452 2 35002 040.4692 032.3281 0023264 135.7779 224.4901 15.44649281 92997 HAWKSAT1 1 35003U 09028C 11012.41086743 .00017760 00000-0 29897-3 0 4857 2 35003 040.4580 018.7777 0022573 162.1528 198.0090 15.50952740 93147 CP6 1 35004U 09028D 11013.38186984 .00020109 00000-0 31271-3 0 4886 2 35004 040.4594 009.3329 0022522 176.2385 183.8609 15.53096643 93325 AEROCUB3 1 35005U 09028E 11006.09222617 .14049365 73043-5 82692-3 0 6103 2 35005 040.4461 021.7975 0025578 084.1677 280.7191 16.39196088 92544 METEOR-M 1 35865U 09049A 11013.68608392 .00000176 00000-0 10000-3 0 86 2 35865 098.7305 070.6572 0003064 106.5994 253.5457 14.21834054 68631 RS-38 1 35869U 09049E 11013.70452771 .00000177 00000-0 10000-3 0 217 2 35869 098.7281 070.7159 0005247 111.3818 248.7879 14.21998097 68647 /EX
participants (1)
-
Ray Hoad